DELTA 1 DEB, 3974

Orbit data source: Space-Track

DELTA 1 DEB, 3974 is space debris in SSO originally from a launch on Fri, 16 Aug 1968 UTC launched from the Air Force Western Test Range (AFWTR). Debris objects in space refer to the collection of defunct objects orbiting the Earth. Examples of debris include non-operational satellites, rocket bodies, and fragments generated from explosions, collisions, or faulty payload assembly.

Loading next visibility...
Identifier
3974, 1968-069E
Orbit
SSO
Country
Flag of USUS
Related business
Manufacturer
Unknown
Mission
Spacecraft
Bus & Motor
Unknown
Mass
Unknown
Launch date (UTC)
1968-08-16 (57 years ago)
Launch vehicle
Unknown
Launch site
Air Force Western Test Range (AFWTR)
Object type
Payload
Rocket body
Debris
Shape & HBR
Unknown shape, 0.1 m
Radar Cross Section
Small (<0.1 m²)

Expand to show TLE details & history
Last TLE update: 15 hours ago

TLE from 15 hours ago
0 DELTA 1 DEB
1 03974U 68069E   26036.10896015 -.00000257  00000-0 -13331-2 0  9998
2 03974 101.8463 132.2573 0033714  81.2396  37.6379 12.53276609630700
Epoch: 2026-02-05T02:36Z
TLE epoch observation values (Epoch: 2026-02-05T02:36:54.156Z)
Latitude
58.85753°
Longitude
157.97325°
Altitude
1,439.712 km
Speed
7.157 km/s
True Right ascension
22h 09m 51s
True Declination
58° 43' 06"
Sunlit
Object was in daylight at epoch
Visualization orbit readout
Latitude
Unknown
Longitude
Unknown
Altitude
Unknown
Speed
Unknown
Apparent Right ascension
Unknown
Apparent Declination
Unknown
Sunlit
N/A
Visualization observer readout
Local Sidereal Time
19:30:11
Azimuth
Unknown
Elevation
Unknown
Doppler factor
Unknown
Orbital elements
Apogee altitude
1,474.754 km
Perigee altitude
1,421.982 km
Semi-major axis
7,826.505 km
Eccentricity
0.00337
Inclination
101.8463°
RAAN
132.2573°
Arg. of periapsis
81.2396°
True anomaly
37.87461°
Mean anomaly
37.6379°
Eccentric anomaly
37.75618°
Mean motion
3.13467 °/min
Orbital period
114.84 mins
BSTAR
-0.0013331
Loading maneuver chart data...
Computing Atmospheric mass density...
Loading historical data...
Loading historical data...
Loading historical data...
Loading historical data...
Loading historical data...
Loading historical data...
Loading historical data...

Documentation

Showing up to 5 results
|